• In Belarus
  • List of Countries
  • For 7 days
  • Water Temperature
  • Satellite Maps
  • Weather Map
  • Weather Widgets
  • user-avatar
    Login

    Hourly Weather Chunyshyne

    Today, 16 December, Saturday

    Time Temperature Precipitation Wind Pressure Humidity
    00:00 +5°C° 0 mm 4 mps 746 mmHg 94%
    01:00 +5°C° 0 mm 4 mps 746 mmHg 95%
    02:00 +5°C° 0 mm 4 mps 746 mmHg 96%
    03:00 +5°C° 0 mm 4 mps 746 mmHg 95%
    04:00 +5°C° 0 mm 5 mps 746 mmHg 95%
    05:00 +5°C° 0 mm 6 mps 746 mmHg 94%
    06:00 +5°C° 0 mm 6 mps 745 mmHg 93%
    07:00 +5°C° 0 mm 6 mps 745 mmHg 92%
    08:00 +5°C° 0 mm 6 mps 745 mmHg 91%
    09:00 +6°C° 0 mm 7 mps 745 mmHg 87%
    10:00 +6°C° 0 mm 7 mps 745 mmHg 82%
    11:00 +8°C° 0 mm 7 mps 745 mmHg 78%
    12:00 +8°C° 0.1 mm 7 mps 745 mmHg 73%
    13:00 +8°C° 0.1 mm 7 mps 745 mmHg 69%
    14:00 +9°C° 0.1 mm 8 mps 744 mmHg 64%
    15:00 +7°C° 0 mm 8 mps 744 mmHg 64%
    16:00 +7°C° 0 mm 8 mps 744 mmHg 64%
    17:00 +7°C° 0 mm 8 mps 744 mmHg 65%
    18:00 +8°C° 0 mm 7 mps 744 mmHg 66%
    19:00 +6°C° 0 mm 7 mps 744 mmHg 68%
    20:00 +6°C° 0 mm 7 mps 744 mmHg 70%
    21:00 +6°C° 0 mm 7 mps 744 mmHg 72%
    22:00 +6°C° 0 mm 7 mps 744 mmHg 74%
    23:00 +5°C° 0 mm 7 mps 745 mmHg 76%

    Tomorrow, 17 December, Sunday

    Time Temperature Precipitation Wind Pressure Humidity
    00:00 +5°C° 0 mm 7 mps 745 mmHg 77%
    01:00 +5°C° 0 mm 7 mps 745 mmHg 78%
    02:00 +5°C° 0 mm 6 mps 745 mmHg 79%
    03:00 +5°C° 0 mm 6 mps 745 mmHg 78%
    04:00 +7°C° 0 mm 6 mps 745 mmHg 78%
    05:00 +7°C° 0 mm 6 mps 745 mmHg 77%
    06:00 +7°C° 0 mm 6 mps 745 mmHg 76%
    07:00 +7°C° 0 mm 6 mps 745 mmHg 76%
    08:00 +7°C° 0 mm 6 mps 745 mmHg 75%
    09:00 +6°C° 0 mm 7 mps 745 mmHg 73%
    10:00 +6°C° 0 mm 7 mps 745 mmHg 72%
    11:00 +6°C° 0 mm 7 mps 745 mmHg 70%
    12:00 +7°C° 0.1 mm 6 mps 745 mmHg 71%
    13:00 +7°C° 0.1 mm 6 mps 744 mmHg 72%
    14:00 +7°C° 0.1 mm 6 mps 744 mmHg 73%
    15:00 +7°C° 0.1 mm 6 mps 744 mmHg 73%
    16:00 +7°C° 0.1 mm 6 mps 744 mmHg 74%
    17:00 +5°C° 0.1 mm 6 mps 744 mmHg 74%
    18:00 +5°C° 0.1 mm 6 mps 744 mmHg 74%
    19:00 +5°C° 0.1 mm 6 mps 744 mmHg 74%
    20:00 +5°C° 0.1 mm 7 mps 744 mmHg 74%
    21:00 +5°C° 0.1 mm 7 mps 743 mmHg 74%
    22:00 +5°C° 0.1 mm 7 mps 743 mmHg 74%
    23:00 +5°C° 0.1 mm 7 mps 743 mmHg 75%

    Day after tomorrow, 18 December, Monday

    Time Temperature Precipitation Wind Pressure Humidity
    00:00 +5°C° 0.1 mm 7 mps 743 mmHg 77%
    01:00 +5°C° 0.1 mm 7 mps 743 mmHg 79%
    02:00 +5°C° 0.1 mm 6 mps 742 mmHg 81%
    03:00 +5°C° 0.3 mm 6 mps 742 mmHg 81%
    04:00 +5°C° 0.3 mm 7 mps 742 mmHg 80%
    05:00 +5°C° 0.3 mm 7 mps 742 mmHg 80%
    06:00 +5°C° 0.8 mm 7 mps 742 mmHg 82%
    07:00 +5°C° 0.8 mm 7 mps 742 mmHg 83%
    08:00 +5°C° 0.8 mm 7 mps 742 mmHg 85%
    09:00 +6°C° 0.5 mm 7 mps 742 mmHg 86%
    10:00 +6°C° 0.5 mm 7 mps 742 mmHg 87%
    11:00 +6°C° 0.5 mm 7 mps 742 mmHg 89%
    12:00 +7°C° 0.1 mm 6 mps 742 mmHg 87%
    13:00 +5°C° 0.1 mm 6 mps 742 mmHg 86%
    14:00 +6°C° 0.1 mm 5 mps 743 mmHg 84%
    15:00 +5°C° 0 mm 5 mps 743 mmHg 82%
    16:00 +3°C° 0 mm 5 mps 744 mmHg 80%
    17:00 +2°C° 0 mm 5 mps 744 mmHg 78%
    18:00 +2°C° 0 mm 5 mps 745 mmHg 77%
    19:00 +2°C° 0 mm 5 mps 745 mmHg 76%
    20:00 +1°C° 0 mm 5 mps 746 mmHg 75%
    21:00 +1°C° 0 mm 4 mps 746 mmHg 76%
    22:00 +1°C° 0 mm 4 mps 746 mmHg 76%
    23:00 0°C° 0 mm 4 mps 747 mmHg 77%

    19 December, Tuesday

    Time Temperature Precipitation Wind Pressure Humidity
    00:00 0°C° 0 mm 4 mps 747 mmHg 77%
    01:00 0°C° 0 mm 4 mps 747 mmHg 77%
    02:00 -1°C° 0 mm 4 mps 748 mmHg 77%
    03:00 -1°C° 0 mm 4 mps 748 mmHg 77%
    04:00 -1°C° 0 mm 4 mps 748 mmHg 76%
    05:00 -1°C° 0 mm 4 mps 748 mmHg 76%
    06:00 0°C° 0 mm 3 mps 749 mmHg 78%
    07:00 -1°C° 0 mm 3 mps 749 mmHg 79%
    08:00 -1°C° 0 mm 3 mps 749 mmHg 81%
    09:00 -1°C° 0 mm 3 mps 750 mmHg 78%
    10:00 -1°C° 0 mm 4 mps 750 mmHg 76%
    11:00 -1°C° 0 mm 4 mps 750 mmHg 73%
    12:00 -1°C° 0 mm 4 mps 751 mmHg 72%
    13:00 -1°C° 0 mm 4 mps 751 mmHg 71%
    14:00 -1°C° 0 mm 4 mps 751 mmHg 71%
    15:00 -1°C° 0 mm 4 mps 751 mmHg 73%
    16:00 -1°C° 0 mm 3 mps 751 mmHg 76%
    17:00 -2°C° 0 mm 3 mps 752 mmHg 79%
    18:00 -2°C° 0 mm 3 mps 752 mmHg 79%
    19:00 -2°C° 0 mm 3 mps 752 mmHg 79%
    20:00 -2°C° 0 mm 3 mps 753 mmHg 79%
    21:00 -2°C° 0 mm 2 mps 753 mmHg 79%
    22:00 -2°C° 0 mm 2 mps 753 mmHg 79%
    23:00 -3°C° 0 mm 2 mps 753 mmHg 78%

    20 December, Wednesday

    Time Temperature Precipitation Wind Pressure Humidity
    00:00 -3°C° 0 mm 2 mps 753 mmHg 78%
    01:00 -3°C° 0 mm 2 mps 753 mmHg 78%
    02:00 -3°C° 0 mm 2 mps 753 mmHg 78%
    03:00 -3°C° 0 mm 2 mps 753 mmHg 79%
    04:00 -3°C° 0 mm 2 mps 753 mmHg 80%
    05:00 -3°C° 0 mm 2 mps 753 mmHg 80%
    06:00 -3°C° 0 mm 2 mps 754 mmHg 80%
    07:00 -3°C° 0 mm 2 mps 754 mmHg 79%
    08:00 -3°C° 0 mm 2 mps 754 mmHg 78%
    09:00 -3°C° 0 mm 2 mps 754 mmHg 74%
    10:00 -2°C° 0 mm 2 mps 754 mmHg 70%
    11:00 -2°C° 0 mm 2 mps 754 mmHg 65%
    12:00 -2°C° 0 mm 2 mps 754 mmHg 64%
    13:00 -1°C° 0 mm 2 mps 754 mmHg 63%
    14:00 -1°C° 0 mm 2 mps 754 mmHg 62%
    15:00 0°C° 0 mm 1 mps 754 mmHg 64%
    16:00 0°C° 0 mm 1 mps 754 mmHg 67%
    17:00 -1°C° 0 mm 1 mps 754 mmHg 70%
    18:00 -1°C° 0 mm 1 mps 754 mmHg 70%
    19:00 -2°C° 0 mm 0 mps 754 mmHg 70%
    20:00 -2°C° 0 mm 0 mps 754 mmHg 70%
    21:00 -2°C° 0 mm 0 mps 754 mmHg 70%
    22:00 -1°C° 0 mm 1 mps 754 mmHg 70%
    23:00 -1°C° 0 mm 1 mps 754 mmHg 70%

    21 December, Thursday

    Time Temperature Precipitation Wind Pressure Humidity
    00:00 -1°C° 0 mm 1 mps 754 mmHg 71%
    01:00 -1°C° 0 mm 1 mps 753 mmHg 71%
    02:00 -2°C° 0 mm 1 mps 753 mmHg 71%
    03:00 -2°C° 0 mm 1 mps 753 mmHg 72%
    04:00 -2°C° 0 mm 1 mps 753 mmHg 73%
    05:00 -4°C° 0 mm 2 mps 752 mmHg 74%
    06:00 -4°C° 0 mm 2 mps 752 mmHg 74%
    07:00 -4°C° 0 mm 2 mps 752 mmHg 75%
    08:00 -4°C° 0 mm 2 mps 752 mmHg 75%
    09:00 -3°C° 0 mm 2 mps 752 mmHg 72%
    10:00 -2°C° 0 mm 2 mps 752 mmHg 68%
    11:00 -1°C° 0 mm 2 mps 752 mmHg 64%
    12:00 -1°C° 0 mm 2 mps 751 mmHg 64%
    13:00 -1°C° 0 mm 3 mps 751 mmHg 64%
    14:00 -1°C° 0 mm 3 mps 750 mmHg 64%
    15:00 -1°C° 0 mm 3 mps 750 mmHg 69%
    16:00 -2°C° 0 mm 3 mps 750 mmHg 74%
    17:00 -4°C° 0 mm 3 mps 750 mmHg 79%
    18:00 -4°C° 0 mm 3 mps 750 mmHg 81%
    19:00 -3°C° 0 mm 2 mps 750 mmHg 83%
    20:00 -3°C° 0 mm 2 mps 750 mmHg 84%
    21:00 -3°C° 0 mm 2 mps 749 mmHg 86%
    22:00 -4°C° 0 mm 3 mps 749 mmHg 87%
    23:00 -5°C° 0 mm 3 mps 749 mmHg 88%
    Show more